Location: Mizzole
(45.4833°N, 11.0500°E)
Time: 02:30:23
(UTC+00:00)

YAOGAN 6 - Pass Details

Date: 21 October 2019
Orbit: 465 x 506 km, 97.0° (Epoch: 18 November)

Event Time Altitude Azimuth Distance (km) Brightness Sun altitude
Rises 17:24:49 0° 164° (SSE) 2,579 6.1 -11.9°
Reaches altitude 10° 17:26:54 10° 164° (SSE) 1,695 5.2 -12.3°
Maximum altitude 17:30:33 81° 78° (ENE) 506 2.5 -12.9°
Drops below altitude 10° 17:34:11 10° 350° (N) 1,687 5.4 -13.6°
Sets 17:36:15 0° 349° (N) 2,566 6.4 -13.9°
